Weather History for KETB - June, 2013

Change the Weather History Date:

Monday, June 10, 2013

  Actual Average Record
Temperature  
Mean Temperature 64 °F -  
Max Temperature 73 °F 74 °F 93 °F (1933)
Min Temperature 55 °F 51 °F 37 °F (1937)
Degree Days  
Heating Degree Days 1    
Growing Degree Days 14 (Base 50)    
Moisture  
Dew Point 57 °F    
Average Humidity 79    
Maximum Humidity 94    
Minimum Humidity 64    
Precipitation  
Precipitation 0.00 in - - ()
Sea Level Pressure  
Sea Level Pressure 29.82 in    
Wind  
Wind Speed 2 mph (East)    
Max Wind Speed 6 mph    
Max Gust Speed -    
Visibility 8 miles    
Events      
Averages and records for this station are not official NWS values.
T = Trace of Precipitation, MM = Missing Value Source: NWS Daily Summary

Daily Weather History Graph

Daily Weather History Graph

Search for Another Location

Airport or City:

Trip Planner

Search our weather history database for the weather conditions in past years. The results will help you decide how hot, cold, wet, or windy it might be!

Date:

Astronomy

Jun. 10, 2013 Rise Set
Actual Time 5:11 AM CDT 8:32 PM CDT
Civil Twilight 4:36 AM CDT 9:08 PM CDT
Nautical Twilight 3:49 AM CDT 9:54 PM CDT
Astronomical Twilight 2:52 AM CDT 10:52 PM CDT
Moon 7:02 AM CDT (6/10) 9:56 PM CDT (6/10)
Length of Visible Light 16h 32m
Length of Day
15h 21m
Waxing Crescent, 4% of the Moon is Illuminated
Jun 10
Waxing Crescent
Jun 16
First Quarter
Jun 23
Full
Jun 29
Last Quarter
Jul 8
New

Hourly Weather History & Observations

Time (CDT) Temp. Dew Point Humidity Pressure Visibility Wind Dir Wind Speed Gust Speed Precip Events Conditions
12:15 AM 62.6 °F 55.4 °F 77% 29.85 in 10.0 mi East 4.6 mph - N/A   Clear
12:35 AM 62.6 °F 53.6 °F 72% 29.84 in 10.0 mi East 4.6 mph - N/A   Clear
12:55 AM 62.6 °F 53.6 °F 72% 29.84 in 10.0 mi Calm Calm - N/A   Clear
1:15 AM 60.8 °F 53.6 °F 77% 29.84 in 10.0 mi Calm Calm - N/A   Clear
1:35 AM 60.8 °F 53.6 °F 77% 29.83 in 10.0 mi Calm Calm - N/A   Clear
1:55 AM 60.8 °F 53.6 °F 77% 29.83 in 10.0 mi Calm Calm - N/A   Clear
2:15 AM 60.8 °F 53.6 °F 77% 29.83 in 10.0 mi Calm Calm - N/A   Scattered Clouds
2:35 AM 60.8 °F 53.6 °F 77% 29.82 in 10.0 mi Calm Calm - N/A   Scattered Clouds
2:55 AM 59.0 °F 53.6 °F 82% 29.81 in 10.0 mi ENE 3.5 mph - N/A   Overcast
3:15 AM 59.0 °F 53.6 °F 82% 29.80 in 10.0 mi Calm Calm - N/A   Overcast
3:35 AM 59.0 °F 53.6 °F 82% 29.80 in 10.0 mi Calm Calm - N/A   Mostly Cloudy
3:55 AM 59.0 °F 53.6 °F 82% 29.80 in 10.0 mi Calm Calm - N/A   Scattered Clouds
4:15 AM 59.0 °F 51.8 °F 77% 29.80 in 7.0 mi NE 4.6 mph - N/A   Mostly Cloudy
4:35 AM 57.2 °F 51.8 °F 82% 29.80 in 7.0 mi Calm Calm - N/A   Mostly Cloudy
4:55 AM 55.4 °F 51.8 °F 88% 29.80 in 7.0 mi NNE 4.6 mph - N/A   Mostly Cloudy
5:15 AM 55.4 °F 51.8 °F 88% 29.80 in 7.0 mi ENE 5.8 mph - N/A   Mostly Cloudy
5:35 AM 55.4 °F 51.8 °F 88% 29.80 in 5.0 mi ENE 4.6 mph - N/A   Haze
5:55 AM 55.4 °F 51.8 °F 88% 29.80 in 4.0 mi Calm Calm - N/A   Overcast
6:15 AM 55.4 °F 51.8 °F 88% 29.80 in 4.0 mi Calm Calm - N/A   Overcast
6:35 AM 55.4 °F 51.8 °F 88% 29.80 in 4.0 mi Calm Calm - N/A   Overcast
6:55 AM 57.2 °F 51.8 °F 82% 29.80 in 4.0 mi Calm Calm - N/A   Haze
7:15 AM 59.0 °F 53.6 °F 82% 29.80 in 4.0 mi Calm Calm - N/A   Haze
7:35 AM 59.0 °F 53.6 °F 82% 29.80 in 5.0 mi ENE 3.5 mph - N/A   Haze
7:55 AM 60.8 °F 53.6 °F 77% 29.80 in 5.0 mi East 4.6 mph - N/A   Haze
8:15 AM 60.8 °F 55.4 °F 82% 29.81 in 5.0 mi East 3.5 mph - N/A   Haze
8:35 AM 60.8 °F 55.4 °F 82% 29.81 in 2.5 mi ESE 3.5 mph - N/A   Overcast
8:55 AM 60.8 °F 57.2 °F 88% 29.81 in 3.0 mi East 4.6 mph - N/A   Overcast
9:35 AM 62.6 °F 59.0 °F 88% 29.82 in 2.5 mi ESE 4.6 mph - N/A   Overcast
9:55 AM 62.6 °F 59.0 °F 88% 29.82 in 2.5 mi East 4.6 mph - N/A   Overcast
10:35 AM 62.6 °F 59.0 °F 88% 29.82 in 3.0 mi Calm Calm - N/A   Overcast
10:55 AM 62.6 °F 59.0 °F 88% 29.82 in 3.0 mi ENE 3.5 mph - N/A   Haze
11:15 AM 62.6 °F 59.0 °F 88% 29.83 in 4.0 mi Calm Calm - N/A   Haze
11:35 AM 62.6 °F 59.0 °F 88% 29.82 in 4.0 mi ENE 4.6 mph - N/A   Haze
11:55 AM 64.4 °F 59.0 °F 83% 29.82 in 4.0 mi ESE 3.5 mph - N/A   Haze
12:15 PM 64.4 °F 59.0 °F 83% 29.82 in 4.0 mi Calm Calm - N/A   Haze
12:55 PM 68.0 °F 60.8 °F 78% 29.82 in 5.0 mi Calm Calm - N/A   Haze
1:15 PM 68.0 °F 60.8 °F 78% 29.82 in 5.0 mi NNE 4.6 mph - N/A   Haze
1:35 PM 69.8 °F 59.0 °F 68% 29.81 in 7.0 mi Calm Calm - N/A   Overcast
1:55 PM 69.8 °F 59.0 °F 68% 29.81 in 10.0 mi North 5.8 mph - N/A   Overcast
2:15 PM 71.6 °F 60.8 °F 69% 29.81 in 7.0 mi ENE 5.8 mph - N/A   Mostly Cloudy
2:35 PM 69.8 °F 60.8 °F 73% 29.81 in 7.0 mi ENE 4.6 mph - N/A   Mostly Cloudy
2:55 PM 71.6 °F 59.0 °F 64% 29.81 in 10.0 mi Calm Calm - N/A   Overcast
3:15 PM 71.6 °F 60.8 °F 69% 29.81 in 10.0 mi Calm Calm - N/A   Mostly Cloudy
3:35 PM 71.6 °F 59.0 °F 64% 29.81 in 10.0 mi ENE 3.5 mph - N/A   Mostly Cloudy
3:55 PM 71.6 °F 59.0 °F 64% 29.80 in 10.0 mi East 3.5 mph - N/A   Overcast
4:15 PM 71.6 °F 59.0 °F 64% 29.81 in 5.0 mi NE 3.5 mph - N/A   Haze
4:35 PM 73.4 °F 60.8 °F 65% 29.81 in 10.0 mi East 3.5 mph - N/A   Scattered Clouds
4:55 PM 73.4 °F 60.8 °F 65% 29.80 in 10.0 mi ESE 3.5 mph - N/A   Scattered Clouds
5:15 PM 71.6 °F 60.8 °F 69% 29.81 in 10.0 mi ENE 3.5 mph - N/A   Scattered Clouds
5:35 PM 73.4 °F 60.8 °F 65% 29.81 in 10.0 mi Calm Calm - N/A   Clear
5:55 PM 73.4 °F 60.8 °F 65% 29.81 in 10.0 mi ENE 4.6 mph - N/A   Clear
6:15 PM 73.4 °F 60.8 °F 65% 29.81 in 10.0 mi ENE 3.5 mph - N/A   Clear
6:35 PM 73.4 °F 60.8 °F 65% 29.81 in 10.0 mi ENE 3.5 mph - N/A   Clear
6:55 PM 71.6 °F 60.8 °F 69% 29.81 in 10.0 mi East 3.5 mph - N/A   Clear
7:15 PM 71.6 °F 60.8 °F 69% 29.81 in 10.0 mi East 4.6 mph - N/A   Clear
7:35 PM 69.8 °F 59.0 °F 68% 29.81 in 10.0 mi ESE 3.5 mph - N/A   Clear
7:55 PM 68.0 °F 59.0 °F 73% 29.82 in 10.0 mi ESE 4.6 mph - N/A   Clear
8:15 PM 68.0 °F 59.0 °F 73% 29.82 in 10.0 mi Calm Calm - N/A   Clear
8:35 PM 66.2 °F 59.0 °F 78% 29.83 in 10.0 mi SSE 3.5 mph - N/A   Clear
8:55 PM 64.4 °F 59.0 °F 83% 29.83 in 10.0 mi SE 3.5 mph - N/A   Clear
9:15 PM 62.6 °F 59.0 °F 88% 29.84 in 10.0 mi Calm Calm - N/A   Clear
9:35 PM 62.6 °F 59.0 °F 88% 29.84 in 10.0 mi Calm Calm - N/A   Clear
9:55 PM 60.8 °F 59.0 °F 94% 29.85 in 10.0 mi Calm Calm - N/A   Clear
10:15 PM 60.8 °F 57.2 °F 88% 29.86 in 10.0 mi Calm Calm - N/A   Clear
10:35 PM 60.8 °F 57.2 °F 88% 29.86 in 7.0 mi Calm Calm - N/A   Clear
10:55 PM 60.8 °F 57.2 °F 88% 29.86 in 7.0 mi Calm Calm - N/A   Clear
11:15 PM 59.0 °F 55.4 °F 88% 29.87 in 7.0 mi Calm Calm - N/A   Clear
11:35 PM 59.0 °F 55.4 °F 88% 29.87 in 5.0 mi Calm Calm - N/A   Clear
11:55 PM 59.0 °F 55.4 °F 88% 29.87 in 5.0 mi Calm Calm - N/A   Clear